[[{"header":{"parameterUnit":"m.s-1","parameterCategory":1,"la1":30.2991,"la2":30.254,"lo1":-89.0895,"lo2":-89.0444,"dy":0.0017,"dx":0.0017,"nx":28,"ny":28,"refTime":"2025-05-23T21:00:00:Z","depth":0,"parameterNumber":2,"parameterNumberName":"U-component_of_WINDS"},"data":[0,0,0,0,0,0,0,0,0,0,0,0,0,0,0,0,0,0,0,0,0,0,0,0,0,0,0,0,0,0,0,0,0,0,0,0,0,0,0,0,0,0,0,0,0,0,0,0,0,0,0,0,0,0,0,0,0,0,0.7336,0.7335,0,0.7267,0.7267,0.7266,0.7216,0.7216,0.7215,0.7215,0.7144,0.7142,0.7141,0,0,0,0,0,0,0,0,0,0,0,0,0,0.7421,0.742,0.7336,0.7335,0.7334,0.7267,0.7266,0.7266,0.7216,0.7216,0.7215,0.7215,0.7144,0.7143,0.7141,0,0,0,0,0,0,0,0,0,0,0,0,0,0.7372,0.742,0.7336,0.7302,0.7298,0.7268,0.7266,0.7265,0.7216,0.7216,0.7215,0.7215,0.7145,0.7143,0.7141,0.7139,0,0,0.7134,0.7133,0,0,0,0,0,0,0,0,0.7375,0.7369,0.7307,0.7304,0.73,0.725,0.727,0.7223,0.7217,0.7247,0.7215,0.7214,0.718,0.7174,0.7163,0.7135,0.7132,0.7133,0.7132,0.7131,0.713,0,0,0,0,0,0,0,0.7378,0.7371,0.7309,0.7307,0.7302,0.7289,0.7281,0.7261,0.7218,0.7245,0.7241,0.7233,0.7177,0.7165,0.7161,0.7131,0.7133,0.7131,0.713,0.7129,0.7097,0.7097,0,0,0,0,0,0,0.7387,0.7375,0.7311,0.7307,0.7336,0.7288,0.7279,0.7266,0.7218,0.721,0.7234,0.7231,0.7169,0.7164,0.7158,0.7151,0.7131,0.7129,0.7128,0.7096,0.7097,0.7097,0,0,0,0,0,0,0.7389,0.7382,0.7314,0.7339,0.733,0.7287,0.7273,0.7265,0.7253,0.721,0.7202,0.723,0.7169,0.7161,0.7144,0.7148,0.7128,0.7126,0.7096,0.7096,0.7097,0.7139,0,0,0,0,0,0,0.7392,0.7383,0.7383,0.734,0.7329,0.7301,0.7273,0.7264,0.7249,0.7245,0.7204,0.7196,0.7168,0.7147,0.7141,0.7145,0.7124,0.7095,0.7096,0.7097,0.7137,0.7141,0.7145,0,0,0,0,0,0.7395,0.7397,0.7383,0.7376,0.7327,0.7301,0.7295,0.7262,0.725,0.7249,0.7221,0.7198,0.7149,0.7146,0.7139,0.7142,0.7095,0.7096,0.7097,0.7135,0.714,0.7145,0,0,0,0,0,0,0.7442,0.7391,0.7375,0.7363,0.7337,0.7293,0.7291,0.7269,0.7245,0.7242,0.7203,0.7194,0.718,0.7159,0.7156,0.7136,0.7119,0.7119,0.715,0.7155,0.7159,0.7164,0.7122,0,0,0,0,0,0.7451,0.7435,0.7391,0.7385,0.7373,0.7334,0.7322,0.7299,0.727,0.7258,0.7229,0.7201,0.7179,0.7166,0.7144,0.7134,0.7123,0.7132,0.7136,0.7139,0.7139,0.7131,0.7134,0.7101,0.7101,0.7101,0,0,0.7469,0.744,0.7432,0.7394,0.7371,0.7354,0.7325,0.7309,0.7296,0.7256,0.7237,0.7214,0.7181,0.7166,0.7159,0.7149,0.7146,0.7141,0.7144,0.7142,0.7132,0.7135,0.7138,0.7102,0.7102,0.7102,0,0,0.7494,0.7471,0.7462,0.744,0.7405,0.7379,0.7377,0.7336,0.7319,0.73,0.7269,0.7252,0.7216,0.7193,0.7176,0.7191,0.7168,0.7184,0.7204,0.7196,0.7199,0.7201,0.7204,0.7206,0.7185,0.7185,0.7185,0,0.7521,0.7495,0.7461,0.7446,0.7429,0.7392,0.7383,0.7362,0.7322,0.7311,0.7301,0.7253,0.7228,0.7207,0.721,0.7199,0.7194,0.7189,0.7201,0.7203,0.7204,0.7207,0.7209,0.7187,0.7187,0.7186,0.7186,0,0.753,0.7512,0.7509,0.7471,0.7454,0.7443,0.7405,0.7392,0.737,0.7345,0.7324,0.7293,0.7262,0.7256,0.7235,0.7231,0.7226,0.7209,0.719,0.721,0.7212,0.7213,0.719,0.7189,0.7189,0.7188,0,0,0.7582,0.7525,0.7524,0.7506,0.7464,0.7449,0.7435,0.7405,0.7394,0.7368,0.7354,0.7323,0.7306,0.7288,0.7263,0.7256,0.7268,0.724,0.7238,0.7245,0.726,0.7273,0.7275,0.7253,0.7253,0.7253,0.7263,0,0.76,0.7573,0.754,0.7524,0.7506,0.747,0.7457,0.743,0.7405,0.7386,0.7359,0.7337,0.7318,0.7306,0.7298,0.7268,0.727,0.7267,0.7238,0.7237,0.7247,0.7276,0.7289,0.73,0.7263,0.7263,0.7264,0,0.7617,0.7592,0.7574,0.7532,0.7523,0.7513,0.7482,0.7464,0.7432,0.7414,0.7393,0.7366,0.7348,0.7332,0.7305,0.7304,0.729,0.7273,0.7273,0.7268,0.7251,0.7271,0.7303,0.7305,0.7265,0.7265,0.7265,0,0.7656,0.7617,0.7601,0.7586,0.7538,0.7531,0.751,0.7477,0.7461,0.7434,0.7423,0.7394,0.7378,0.7356,0.7322,0.7314,0.7298,0.728,0.7282,0.7283,0.728,0.7281,0.731,0.7273,0.7273,0.7273,0.7273,0,0.7678,0.7668,0.7618,0.7608,0.7595,0.7557,0.7545,0.7521,0.7491,0.7475,0.7442,0.7427,0.7383,0.7363,0.7336,0.7317,0.731,0.7295,0.7288,0.7297,0.7299,0.7287,0.7285,0.7273,0.7273,0.7273,0.7273,0,0.772,0.7685,0.7665,0.762,0.7609,0.7601,0.7562,0.7551,0.7524,0.7503,0.7496,0.7454,0.7428,0.7392,0.7355,0.7337,0.7321,0.7311,0.7333,0.7328,0.7332,0.7332,0.7354,0.7354,0.7319,0.7319,0.7319,0,0.7736,0.7727,0.7682,0.7668,0.7649,0.7628,0.7611,0.7573,0.7557,0.7518,0.7511,0.7482,0.7457,0.7417,0.7383,0.7354,0.7341,0.7351,0.7337,0.7346,0.734,0.7341,0.7339,0.7354,0.7355,0.7355,0.7356,0,0.7768,0.7751,0.7729,0.7699,0.768,0.7655,0.7629,0.762,0.7576,0.7559,0.7532,0.7513,0.7474,0.7446,0.7412,0.739,0.7365,0.736,0.7359,0.7369,0.7381,0.7373,0.7341,0.736,0.736,0.7359,0.7359,0.7359,0.7796,0.7786,0.7752,0.7728,0.7704,0.7679,0.7665,0.7637,0.7614,0.758,0.7559,0.7532,0.7498,0.745,0.7429,0.7407,0.7397,0.7396,0.7395,0.7395,0.7398,0.7385,0.7401,0.74,0.74,0.74,0.74,0,0.7826,0.7802,0.778,0.7743,0.7723,0.7702,0.7671,0.7656,0.7633,0.7604,0.758,0.7548,0.752,0.7483,0.7452,0.7441,0.7429,0.7434,0.7434,0.7429,0.7409,0.7413,0.7444,0.7444,0.7444,0.7444,0.7444,0.7444,0.7839,0.782,0.7799,0.7768,0.7743,0.7718,0.7702,0.7678,0.7654,0.762,0.7597,0.7573,0.754,0.7506,0.7478,0.7468,0.7458,0.7466,0.7452,0.7434,0.743,0.7427,0.743,0.7465,0.7465,0.7474,0.7474,0.7474]},{"header":{"parameterUnit":"m.s-1","parameterCategory":1,"la1":30.2991,"la2":30.254,"lo1":-89.0895,"lo2":-89.0444,"dy":0.0017,"dx":0.0017,"nx":28,"ny":28,"refTime":"2025-05-23T21:00:00:Z","depth":0,"parameterNumber":3,"parameterNumberName":"V-component_of_WINDS"},"data":[0,0,0,0,0,0,0,0,0,0,0,0,0,0,0,0,0,0,0,0,0,0,0,0,0,0,0,0,0,0,0,0,0,0,0,0,0,0,0,0,0,0,0,0,0,0,0,0,0,0,0,0,0,0,0,0,0,0,3.6776,3.6777,0,3.6847,3.6847,3.6848,3.6846,3.6845,3.6844,3.6843,3.691,3.6912,3.6915,0,0,0,0,0,0,0,0,0,0,0,0,0,3.6632,3.6634,3.6776,3.6777,3.6778,3.6847,3.6848,3.6848,3.6846,3.6845,3.6843,3.6842,3.6909,3.6912,3.6915,0,0,0,0,0,0,0,0,0,0,0,0,0,3.6697,3.6635,3.6776,3.6785,3.6786,3.6846,3.6848,3.6849,3.6846,3.6845,3.6843,3.6842,3.6908,3.6912,3.6916,3.697,0,0,3.6928,3.693,0,0,0,0,0,0,0,0,3.6694,3.6703,3.6782,3.6784,3.6786,3.6836,3.6821,3.6889,3.6846,3.6823,3.6843,3.6841,3.6886,3.6892,3.6908,3.6973,3.6976,3.6928,3.6931,3.6933,3.6934,0,0,0,0,0,0,0,3.6689,3.67,3.6804,3.6784,3.6786,3.6783,3.6791,3.6834,3.6862,3.6825,3.6825,3.6834,3.6887,3.6904,3.691,3.6977,3.6928,3.6932,3.6934,3.6936,3.7088,3.709,0,0,0,0,0,0,3.6684,3.6696,3.6801,3.6806,3.6736,3.6787,3.6796,3.6821,3.6861,3.6866,3.6835,3.6833,3.6898,3.6905,3.6912,3.6978,3.6933,3.6936,3.6939,3.7087,3.7089,3.7091,0,0,0,0,0,0,3.668,3.6693,3.6799,3.6751,3.6764,3.6791,3.682,3.6823,3.6841,3.6869,3.6873,3.6848,3.6897,3.6906,3.6956,3.698,3.6938,3.6942,3.7085,3.7087,3.709,3.711,0,0,0,0,0,0,3.6676,3.6692,3.6714,3.6752,3.6767,3.6843,3.6821,3.6826,3.6849,3.6847,3.6882,3.6887,3.6897,3.695,3.696,3.6985,3.6945,3.7083,3.7086,3.7089,3.7107,3.7113,3.7117,0,0,0,0,0,3.6671,3.6716,3.6716,3.6728,3.6796,3.6844,3.6853,3.6865,3.6851,3.6872,3.689,3.6886,3.6976,3.6955,3.6966,3.6993,3.7081,3.7085,3.7089,3.7105,3.7112,3.7117,0,0,0,0,0,0,3.6679,3.6721,3.6721,3.678,3.6809,3.6844,3.6872,3.6872,3.6904,3.6901,3.6913,3.6921,3.697,3.6986,3.6962,3.7047,3.7026,3.7032,3.7035,3.7041,3.7046,3.7042,3.6948,0,0,0,0,0,3.6688,3.6727,3.676,3.6808,3.6823,3.6845,3.6867,3.6874,3.6903,3.6915,3.6936,3.6964,3.6998,3.702,3.7054,3.7109,3.7116,3.7133,3.7138,3.7142,3.7147,3.7177,3.7185,3.7103,3.7103,3.7102,0,0,3.6707,3.6734,3.6757,3.6811,3.6834,3.6871,3.6855,3.6896,3.6923,3.692,3.6969,3.6985,3.7017,3.7069,3.7093,3.7084,3.7171,3.7147,3.715,3.7153,3.7182,3.7189,3.7196,3.7105,3.7105,3.7104,0,0,3.6759,3.6784,3.6827,3.6851,3.6887,3.6901,3.6912,3.6947,3.6958,3.7007,3.7006,3.7037,3.7097,3.7119,3.7138,3.7198,3.7195,3.7208,3.7235,3.7264,3.7271,3.7276,3.7298,3.7305,3.7213,3.7213,3.7213,0,3.6777,3.6836,3.6849,3.689,3.6913,3.6914,3.6956,3.6978,3.7022,3.7037,3.7026,3.71,3.7121,3.7179,3.7194,3.7209,3.722,3.7205,3.7269,3.7275,3.728,3.7301,3.7309,3.7215,3.7214,3.7214,3.7214,0,3.6855,3.6895,3.6925,3.697,3.6996,3.7037,3.7055,3.708,3.7084,3.7098,3.7147,3.7173,3.7211,3.7225,3.7228,3.7283,3.7276,3.7267,3.7247,3.729,3.7309,3.7317,3.7217,3.7216,3.7216,3.7215,0,0,3.6916,3.6967,3.6978,3.6998,3.7038,3.7068,3.7108,3.7147,3.7168,3.7197,3.7231,3.7281,3.7273,3.7294,3.73,3.7325,3.7371,3.7313,3.7314,3.7323,3.7432,3.7439,3.7447,3.7369,3.737,3.7372,3.7429,0,3.6973,3.7047,3.706,3.7124,3.716,3.7161,3.7196,3.7223,3.7237,3.7269,3.7283,3.7319,3.7306,3.7319,3.7344,3.736,3.7393,3.7356,3.7399,3.74,3.7392,3.7458,3.7465,3.7518,3.7437,3.7438,3.7439,0,3.7049,3.7083,3.7152,3.7186,3.7201,3.7233,3.7269,3.73,3.7329,3.7338,3.7362,3.7365,3.7405,3.7383,3.7437,3.7412,3.743,3.744,3.7443,3.7447,3.7423,3.7464,3.7535,3.7543,3.7451,3.745,3.7449,0,3.7087,3.7149,3.7198,3.7215,3.7256,3.7278,3.7295,3.7324,3.7346,3.7377,3.7391,3.7426,3.7445,3.747,3.7482,3.7465,3.7536,3.7515,3.7543,3.7543,3.7558,3.7557,3.7634,3.7569,3.7569,3.7569,3.7569,0,3.7149,3.7191,3.7215,3.7245,3.7291,3.7304,3.7349,3.7366,3.7391,3.7423,3.7424,3.7454,3.7467,3.7498,3.7507,3.7551,3.7559,3.7566,3.7568,3.7567,3.7566,3.7579,3.7576,3.7571,3.7571,3.757,3.757,0,3.7199,3.7217,3.7271,3.7305,3.7315,3.7347,3.7375,3.7404,3.7417,3.7458,3.7468,3.7489,3.7526,3.754,3.7584,3.759,3.764,3.7639,3.7631,3.7632,3.7659,3.7657,3.7747,3.776,3.7687,3.7687,3.7688,0,3.7238,3.727,3.7308,3.7331,3.735,3.7386,3.7409,3.7422,3.7446,3.7482,3.7505,3.7542,3.7572,3.7631,3.7649,3.7682,3.7682,3.7711,3.7687,3.7684,3.7683,3.7681,3.7684,3.7716,3.7717,3.7717,3.7718,0,3.7305,3.7312,3.7347,3.7384,3.7412,3.7442,3.747,3.7488,3.7505,3.7531,3.757,3.7594,3.7639,3.7675,3.771,3.7726,3.7725,3.7725,3.7734,3.7733,3.7727,3.7731,3.7644,3.7723,3.7723,3.7722,3.7722,3.7722,3.735,3.7379,3.7411,3.7449,3.7472,3.7498,3.7527,3.7545,3.7577,3.7617,3.7622,3.7663,3.769,3.7737,3.7755,3.7786,3.7778,3.779,3.7793,3.7796,3.7798,3.7722,3.7792,3.7792,3.7792,3.7791,3.7791,0,3.7417,3.7438,3.7473,3.7514,3.7543,3.754,3.7572,3.7596,3.7633,3.7659,3.7689,3.7733,3.7768,3.7789,3.7824,3.7845,3.7845,3.7854,3.7852,3.7856,3.7803,3.7793,3.7853,3.7853,3.7853,3.7853,3.7853,3.7853,3.7456,3.7504,3.7515,3.7574,3.7594,3.7635,3.7653,3.7677,3.7699,3.7748,3.7778,3.7792,3.7816,3.7853,3.7884,3.7889,3.7902,3.7911,3.7916,3.7866,3.786,3.7854,3.7844,3.7914,3.7914,3.7966,3.7967,3.7967]}]]